Weather History for Montpelier, VT

Change the Weather History Date:

Wednesday, January 1, 2014

  Actual Average Record
Temperature  
Mean Temperature 6 °F 18 °F  
Max Temperature 14 °F 27 °F 55 °F (1952)
Min Temperature -3 °F 9 °F -21 °F (1968)
Degree Days  
Heating Degree Days 59 47  
Month to date heating degree days 59 47  
Since 1 July heating degree days 3317 3195  
Cooling Degree Days 0 0  
Month to date cooling degree days 0  
Year to date cooling degree days 0  
Moisture  
Dew Point 1 °F    
Average Humidity 75    
Maximum Humidity 92    
Minimum Humidity 58    
Precipitation  
Precipitation T in 0.07 in 0.82 in (1961)
Month to date precipitation T 0.07  
Year to date precipitation T 0.07  
Sea Level Pressure  
Sea Level Pressure 30.30 in    
Wind  
Wind Speed 7 mph (NW)    
Max Wind Speed 14 mph    
Max Gust Speed 21 mph    
Visibility 9 miles    
Events Snow    
T = Trace of Precipitation, MM = Missing Value Source: NWS Daily Summary

Daily Weather History Graph

Daily Weather History Graph

Search for Another Location

Airport:

Trip Planner

Search our weather history database for the weather conditions in past years. The results will help you decide how hot, cold, wet, or windy it might be!

Date:

Astronomy

Jan. 01, 2014 Rise Set
Actual Time 7:25 AM EST 4:22 PM EST
Civil Twilight 6:52 AM EST 4:55 PM EST
Nautical Twilight 6:16 AM EST 5:31 PM EST
Astronomical Twilight 5:41 AM EST 6:06 PM EST
Moon 7:11 AM EST (1/1) 5:06 PM EST (1/1)
Length of Visible Light 10h 02m
Length of Day
8h 56m
New Moon, 0% of the Moon is Illuminated
Jan 1
New Moon
Jan 7
First Quarter
Jan 15
Full
Jan 24
Last Quarter
Jan 30
New

Hourly Weather History & Observations

Time (EST) Temp. Windchill Dew Point Humidity Pressure Visibility Wind Dir Wind Speed Gust Speed Precip Events Conditions
12:35 AM 12.2 °F 2.9 °F 6.8 °F 79% 30.08 in 2.5 mi WNW 5.8 mph - 0.00 in Snow Light Snow
12:43 AM 12.2 °F 4.3 °F 6.8 °F 79% 30.08 in 3.0 mi West 4.6 mph - 0.00 in Snow Light Snow
12:51 AM 12.9 °F 6.9 °F 7.0 °F 77% 30.16 in 6.0 mi West 3.5 mph - 0.00 in Snow Light Snow
1:10 AM 12.2 °F 2.9 °F 6.8 °F 79% 30.09 in 2.0 mi WNW 5.8 mph - 0.00 in Snow Light Snow
1:22 AM 12.2 °F 6.1 °F 8.6 °F 85% 30.09 in 5.0 mi WNW 3.5 mph - 0.00 in Snow Light Snow
1:51 AM 12.0 °F 5.9 °F 9.0 °F 88% 30.18 in 3.0 mi NW 3.5 mph - 0.00 in Snow Light Snow
2:51 AM 12.0 °F 5.9 °F 9.0 °F 88% 30.20 in 10.0 mi North 3.5 mph - 0.00 in   Overcast
3:51 AM 10.9 °F - 9.0 °F 92% 30.21 in 10.0 mi Calm Calm - N/A   Overcast
4:51 AM 10.0 °F 0.4 °F 7.0 °F 87% 30.23 in 10.0 mi NW 5.8 mph - N/A   Overcast
5:51 AM 10.9 °F 0.2 °F 1.0 °F 64% 30.27 in 10.0 mi West 6.9 mph - N/A   Overcast
6:51 AM 10.0 °F -1.9 °F -2.0 °F 58% 30.27 in 10.0 mi West 8.1 mph - N/A   Clear
7:51 AM 10.0 °F -0.9 °F -2.0 °F 58% 30.30 in 10.0 mi West 6.9 mph - N/A   Overcast
8:51 AM 10.9 °F -2.6 °F -0.9 °F 59% 30.32 in 10.0 mi WNW 10.4 mph - N/A   Overcast
9:51 AM 10.9 °F -2.6 °F -2.0 °F 56% 30.34 in 10.0 mi WNW 10.4 mph 17.3 mph N/A   Overcast
10:51 AM 10.9 °F -0.8 °F 1.0 °F 64% 30.35 in 10.0 mi North 8.1 mph - N/A   Overcast
11:51 AM 10.0 °F 0.4 °F 1.9 °F 70% 30.35 in 10.0 mi North 5.8 mph - N/A   Overcast
12:51 PM 10.0 °F -0.9 °F 1.9 °F 70% 30.34 in 10.0 mi North 6.9 mph - N/A   Overcast
1:51 PM 10.9 °F -0.8 °F 1.9 °F 67% 30.35 in 10.0 mi North 8.1 mph - N/A   Overcast
2:51 PM 10.0 °F -2.9 °F 1.9 °F 70% 30.37 in 10.0 mi NNW 9.2 mph - N/A   Overcast
3:51 PM 8.1 °F -4.3 °F 1.0 °F 73% 30.39 in 10.0 mi NNW 8.1 mph - N/A   Overcast
4:51 PM 8.1 °F -4.3 °F 1.0 °F 73% 30.40 in 10.0 mi NW 8.1 mph - N/A   Overcast
5:51 PM 7.0 °F -7.5 °F -0.9 °F 70% 30.40 in 10.0 mi NW 10.4 mph - N/A   Overcast
6:51 PM 5.0 °F -6.9 °F -2.0 °F 73% 30.42 in 10.0 mi NNW 6.9 mph - N/A   Mostly Cloudy
7:51 PM 3.0 °F -6.4 °F -2.0 °F 80% 30.44 in 10.0 mi NNW 4.6 mph - N/A   Overcast
8:51 PM 1.0 °F -12.9 °F -5.1 °F 75% 30.45 in 10.0 mi NE 8.1 mph - N/A   Overcast
9:51 PM -2.0 °F -16.6 °F -8.0 °F 76% 30.46 in 10.0 mi NE 8.1 mph - N/A   Overcast
10:51 PM -2.9 °F -11.2 °F -9.9 °F 72% 30.48 in 10.0 mi Variable 3.5 mph - N/A   Overcast
11:51 PM -2.9 °F -15.0 °F -9.9 °F 72% 30.47 in 10.0 mi NNE 5.8 mph - N/A   Overcast